This is the latest recevied weather packets stored in our database for station/object HB9FHL-13. If no packets are shown the sender has not sent any weather packets the latest 10 day(s).
| Time | Temp. | Humidity | Pressure | Rain* | Wind** | Luminosity | Snow |
|---|---|---|---|---|---|---|---|
| 1788329605 | 18.33° C | - | 1023.7 hPa | 0 mm | - | - | - |
| 1788329305 | 18.33° C | - | 1024.2 hPa | 0 mm | - | - | - |
| 1788329004 | 17.78° C | - | 1024.9 hPa | 0 mm | - | - | - |
| 1788328704 | 17.22° C | - | 1023.8 hPa | 0 mm | - | - | - |
| 1788328402 | 17.78° C | - | 1022.7 hPa | 0 mm | - | - | - |
| 1788328101 | 17.22° C | - | 1024.6 hPa | 0 mm | - | - | - |
| 1788327801 | 17.78° C | - | 1024.2 hPa | 0 mm | - | - | - |
| 1788327500 | 18.33° C | - | 1024.2 hPa | 0 mm | - | - | - |
| 1788327200 | 18.33° C | - | 1024.4 hPa | 0 mm | - | - | - |
| 1788326899 | 18.33° C | - | 1024.5 hPa | 0 mm | - | - | - |
| 1788326599 | 17.22° C | - | 1023 hPa | 0 mm | - | - | - |
| 1788326298 | 17.78° C | - | 1023.3 hPa | 0 mm | - | - | - |
| 1788325998 | 17.22° C | - | 1024.9 hPa | 0 mm | - | - | - |
| 1788325697 | 17.22° C | - | 1024 hPa | 0 mm | - | - | - |
| 1788325397 | 17.78° C | - | 1023.8 hPa | 0 mm | - | - | - |
| 1788325096 | 17.22° C | - | 1024.1 hPa | 0 mm | - | - | - |
| 1788324796 | 16.67° C | - | 1024.2 hPa | 0 mm | - | - | - |
| 1788324496 | 17.78° C | - | 1023.1 hPa | 0 mm | - | - | - |
| 1788324195 | 17.78° C | - | 1023 hPa | 0 mm | - | - | - |
| 1788323895 | 17.22° C | - | 1024.9 hPa | 0 mm | - | - | - |
| 1788323594 | 17.22° C | - | 1024 hPa | 0 mm | - | - | - |
| 1788323294 | 17.22° C | - | 1024 hPa | 0 mm | - | - | - |
| 1788322993 | 17.78° C | - | 1024.5 hPa | 0 mm | - | - | - |
| 1788322693 | 17.22° C | - | 1023.5 hPa | 0 mm | - | - | - |
| 1788322449 | 16.67° C | - | 1022.7 hPa | 0 mm | - | - | - |
* Rain since midnight (hover to see other rain measurements)
** Current wind speed in m/s (hover to see current wind gust speed)